Location: Borojevi?i
(45.0486°N, 16.2297°E)
Time: 06:57:46
(UTC+00:00)

Tsikada Rocket - Pass Details

Date: 08 August 2020
Orbit: 957 x 1010 km, 82.9° (Epoch: 26 September)

Event Time Altitude Azimuth Distance (km) Brightness Sun altitude
Rises 21:45:23 0° 353° (N) 3,739 8.3 -26.8°
Reaches altitude 10° 21:47:58 10° 355° (N) 2,779 7.3 -26.9°
Maximum altitude 21:54:21 72° 80° (E) 1,043 4.0 -27.3°
Enters shadow 21:54:59 66° 121° (ESE) 1,073 3.9 -27.3°
